TimeEST,TemperatureF,Dew PointF,Humidity,Sea Level PressureIn,VisibilityMPH,Wind Direction,Wind SpeedMPH,Gust SpeedMPH,PrecipitationIn,Events,Conditions,WindDirDegrees,DateUTC
12:15 AM,55.4,48.2,77,30.36,10.0,NE,13.8,-,N/A,,Overcast,50,2013-01-25 05:15:00
12:35 AM,55.4,48.2,77,30.36,10.0,NE,13.8,25.3,N/A,,Overcast,50,2013-01-25 05:35:00
12:55 AM,53.6,46.4,77,30.35,10.0,NE,13.8,21.9,N/A,,Overcast,50,2013-01-25 05:55:00
1:15 AM,53.6,46.4,77,30.34,10.0,NE,12.7,20.7,N/A,,Overcast,50,2013-01-25 06:15:00
1:35 AM,53.6,46.4,77,30.34,10.0,NE,13.8,17.3,N/A,,Mostly Cloudy,40,2013-01-25 06:35:00
1:55 AM,53.6,48.2,82,30.35,10.0,NNE,9.2,-,N/A,,Mostly Cloudy,30,2013-01-25 06:55:00
2:15 AM,53.6,48.2,82,30.35,10.0,NE,10.4,-,N/A,,Overcast,40,2013-01-25 07:15:00
2:35 AM,53.6,50.0,88,30.35,10.0,NE,10.4,18.4,N/A,,Overcast,40,2013-01-25 07:35:00
2:55 AM,53.6,50.0,88,30.36,10.0,NE,10.4,20.7,N/A,,Overcast,50,2013-01-25 07:55:00
3:15 AM,53.6,48.2,82,30.36,10.0,NE,12.7,16.1,N/A,,Overcast,50,2013-01-25 08:15:00
3:35 AM,53.6,48.2,82,30.36,10.0,NE,10.4,18.4,N/A,,Overcast,40,2013-01-25 08:35:00
3:55 AM,53.6,48.2,82,30.36,10.0,NNE,10.4,-,N/A,,Overcast,30,2013-01-25 08:55:00
4:15 AM,53.6,46.4,77,30.36,10.0,NNE,11.5,-,N/A,,Overcast,30,2013-01-25 09:15:00
4:35 AM,53.6,46.4,77,30.37,10.0,NE,12.7,20.7,N/A,,Overcast,40,2013-01-25 09:35:00
4:55 AM,53.6,46.4,77,30.36,10.0,NE,11.5,16.1,N/A,,Overcast,50,2013-01-25 09:55:00
5:15 AM,53.6,46.4,77,30.36,10.0,NE,15.0,-,N/A,,Overcast,50,2013-01-25 10:15:00
5:35 AM,53.6,46.4,77,30.36,10.0,NE,12.7,19.6,N/A,,Overcast,50,2013-01-25 10:35:00
5:55 AM,50.0,44.6,82,30.36,10.0,NNE,9.2,-,N/A,,Overcast,30,2013-01-25 10:55:00
6:15 AM,48.2,42.8,82,30.35,10.0,NE,6.9,-,N/A,,Overcast,50,2013-01-25 11:15:00
6:35 AM,48.2,42.8,82,30.36,10.0,NNE,5.8,-,N/A,,Mostly Cloudy,20,2013-01-25 11:35:00
6:55 AM,46.4,42.8,87,30.36,10.0,NNE,9.2,-,N/A,,Clear,20,2013-01-25 11:55:00
7:15 AM,46.4,42.8,87,30.37,10.0,North,6.9,-,N/A,,Scattered Clouds,10,2013-01-25 12:15:00
7:35 AM,46.4,42.8,87,30.37,10.0,North,4.6,-,N/A,,Scattered Clouds,10,2013-01-25 12:35:00
7:55 AM,44.6,41.0,87,30.36,10.0,Calm,Calm,-,N/A,,Scattered Clouds,0,2013-01-25 12:55:00
8:15 AM,44.6,41.0,87,30.35,10.0,Calm,Calm,-,N/A,,Clear,0,2013-01-25 13:15:00
8:35 AM,46.4,42.8,87,30.35,10.0,North,3.5,-,N/A,,Scattered Clouds,10,2013-01-25 13:35:00
8:55 AM,48.2,42.8,82,30.36,10.0,North,4.6,-,N/A,,Mostly Cloudy,360,2013-01-25 13:55:00
9:15 AM,50.0,44.6,82,30.35,10.0,NE,4.6,-,N/A,,Mostly Cloudy,40,2013-01-25 14:15:00
9:35 AM,51.8,44.6,76,30.36,10.0,NNE,5.8,-,N/A,,Scattered Clouds,20,2013-01-25 14:35:00
9:55 AM,53.6,44.6,72,30.36,10.0,NNE,5.8,-,N/A,,Mostly Cloudy,20,2013-01-25 14:55:00
10:15 AM,51.8,44.6,76,30.37,10.0,North,6.9,-,N/A,,Overcast,350,2013-01-25 15:15:00
10:35 AM,51.8,44.6,76,30.37,10.0,NW,3.5,-,N/A,,Overcast,320,2013-01-25 15:35:00
10:55 AM,53.6,42.8,67,30.37,10.0,NNW,5.8,-,N/A,,Overcast,330,2013-01-25 15:55:00
11:15 AM,53.6,42.8,67,30.36,10.0,NNW,4.6,-,N/A,,Overcast,340,2013-01-25 16:15:00
11:35 AM,55.4,44.6,67,30.34,10.0,NNW,3.5,-,N/A,,Mostly Cloudy,340,2013-01-25 16:35:00
11:55 AM,55.4,44.6,67,30.32,10.0,Calm,Calm,-,N/A,,Clear,0,2013-01-25 16:55:00
12:15 PM,59.0,44.6,59,30.30,10.0,Calm,Calm,-,N/A,,Clear,0,2013-01-25 17:15:00
12:35 PM,59.0,46.4,63,30.28,10.0,Calm,Calm,-,N/A,,Clear,0,2013-01-25 17:35:00
12:55 PM,60.8,46.4,59,30.26,10.0,Calm,Calm,-,N/A,,Clear,0,2013-01-25 17:55:00
1:15 PM,60.8,50.0,68,30.25,10.0,Calm,Calm,-,N/A,,Clear,0,2013-01-25 18:15:00
1:35 PM,64.4,50.0,59,30.24,10.0,Calm,Calm,-,N/A,,Clear,0,2013-01-25 18:35:00
1:55 PM,68.0,50.0,52,30.24,10.0,South,4.6,-,N/A,,Clear,170,2013-01-25 18:55:00
2:15 PM,68.0,50.0,52,30.23,10.0,West,4.6,-,N/A,,Clear,260,2013-01-25 19:15:00
2:35 PM,69.8,51.8,53,30.21,10.0,SSW,5.8,-,N/A,,Clear,200,2013-01-25 19:35:00
2:55 PM,68.0,51.8,56,30.20,10.0,SSW,5.8,-,N/A,,Clear,200,2013-01-25 19:55:00
3:15 PM,68.0,51.8,56,30.20,10.0,South,4.6,-,N/A,,Clear,190,2013-01-25 20:15:00
3:35 PM,68.0,51.8,56,30.19,10.0,Calm,Calm,-,N/A,,Clear,0,2013-01-25 20:35:00
3:55 PM,68.0,53.6,60,30.18,10.0,SSE,5.8,-,N/A,,Clear,150,2013-01-25 20:55:00
4:15 PM,66.2,53.6,64,30.19,10.0,SE,4.6,-,N/A,,Clear,140,2013-01-25 21:15:00
4:35 PM,64.4,53.6,68,30.19,10.0,SE,6.9,-,N/A,,Clear,130,2013-01-25 21:35:00
4:55 PM,62.6,53.6,72,30.19,10.0,SE,4.6,-,N/A,,Clear,130,2013-01-25 21:55:00
5:15 PM,62.6,53.6,72,30.19,10.0,East,5.8,-,N/A,,Clear,90,2013-01-25 22:15:00
5:35 PM,60.8,53.6,77,30.19,10.0,Calm,Calm,-,N/A,,Clear,0,2013-01-25 22:35:00
5:55 PM,59.0,51.8,77,30.19,10.0,East,4.6,-,N/A,,Clear,100,2013-01-25 22:55:00
6:15 PM,59.0,51.8,77,30.20,10.0,ENE,4.6,-,N/A,,Clear,70,2013-01-25 23:15:00
6:35 PM,53.6,50.0,88,30.19,10.0,ENE,3.5,-,N/A,,Clear,60,2013-01-25 23:35:00
6:55 PM,55.4,51.8,88,30.20,10.0,Calm,Calm,-,N/A,,Clear,0,2013-01-25 23:55:00
7:15 PM,55.4,51.8,88,30.20,10.0,Calm,Calm,-,N/A,,Clear,0,2013-01-26 00:15:00
7:35 PM,55.4,53.6,94,30.19,10.0,Calm,Calm,-,N/A,,Clear,0,2013-01-26 00:35:00
7:55 PM,55.4,51.8,88,30.19,10.0,Calm,Calm,-,N/A,,Clear,0,2013-01-26 00:55:00
8:15 PM,57.2,53.6,88,30.18,10.0,Calm,Calm,-,N/A,,Clear,0,2013-01-26 01:15:00
8:35 PM,57.2,53.6,88,30.18,10.0,Calm,Calm,-,N/A,,Clear,0,2013-01-26 01:35:00
8:55 PM,55.4,53.6,94,30.19,10.0,Calm,Calm,-,N/A,,Clear,0,2013-01-26 01:55:00
9:15 PM,55.4,51.8,88,30.19,10.0,Calm,Calm,-,N/A,,Clear,0,2013-01-26 02:15:00
9:35 PM,51.8,51.8,100,30.19,10.0,Calm,Calm,-,N/A,,Clear,0,2013-01-26 02:35:00
9:55 PM,51.8,50.0,94,30.19,5.0,Calm,Calm,-,N/A,,Clear,0,2013-01-26 02:55:00
10:15 PM,51.8,50.0,94,30.19,7.0,Calm,Calm,-,N/A,,Clear,0,2013-01-26 03:15:00
10:35 PM,50.0,50.0,100,30.20,5.0,Calm,Calm,-,N/A,,Clear,0,2013-01-26 03:35:00
10:55 PM,50.0,50.0,100,30.21,5.0,Calm,Calm,-,N/A,,Clear,0,2013-01-26 03:55:00
11:15 PM,50.0,50.0,100,30.21,5.0,Calm,Calm,-,N/A,,Clear,0,2013-01-26 04:15:00
11:35 PM,50.0,48.2,94,30.21,1.2,Calm,Calm,-,N/A,,Unknown,0,2013-01-26 04:35:00
11:55 PM,48.2,48.2,100,30.20,0.5,Calm,Calm,-,N/A,,Unknown,0,2013-01-26 04:55:00